Location: L�gaud
(45.7115°N, 1.7775°E)
Time: 17:15:10
(UTC+00:00)

Meteor 1-19 Rocket - Pass Details

Date: 03 March 2021
Orbit: 807 x 928 km, 81.2° (Epoch: 11 April)

Event Time Altitude Azimuth Distance (km) Brightness Sun altitude
Rises 18:41:10 0° 348° (NNW) 3,566 7.6 -11.0°
Reaches altitude 10° 18:43:40 10° 348° (NNW) 2,608 6.9 -11.5°
Maximum altitude 18:49:39 88° 262° (W) 901 4.4 -12.5°
Drops below altitude 10° 18:55:24 10° 172° (S) 2,515 6.5 -13.5°
Sets 18:57:47 0° 172° (S) 3,430 7.2 -13.9°
